Weather History for Sexton Summit, OR

Change the Weather History Date:

Monday, October 15, 2012

  Actual Average Record
Temperature  
Mean Temperature 52 °F -  
Max Temperature 55 °F 56 °F 77 °F (2002)
Min Temperature 48 °F 42 °F 32 °F (1999)
Degree Days  
Heating Degree Days 14    
Growing Degree Days 2 (Base 50)    
Moisture  
Dew Point 50 °F    
Average Humidity 97    
Maximum Humidity 100    
Minimum Humidity 89    
Precipitation  
Precipitation 1.40 in - - ()
Sea Level Pressure  
Sea Level Pressure 30.07 in    
Wind  
Wind Speed 14 mph (South)    
Max Wind Speed 17 mph    
Max Gust Speed 26 mph    
Visibility 3 miles    
Events Fog , Rain    
Averages and records for this station are not official NWS values.
T = Trace of Precipitation, MM = Missing Value Source: NWS Daily Summary

Daily Weather History Graph

Daily Weather History Graph

Search for Another Location

Airport:

Trip Planner

Search our weather history database for the weather conditions in past years. The results will help you decide how hot, cold, wet, or windy it might be!

Date:

Astronomy

Oct. 15, 2012 Rise Set
Actual Time 7:27 AM PDT 6:30 PM PDT
Civil Twilight 6:58 AM PDT 6:58 PM PDT
Nautical Twilight 6:26 AM PDT 7:31 PM PDT
Astronomical Twilight 5:53 AM PDT 8:03 PM PDT
Moon 7:45 AM PDT (10/15) 6:31 PM PDT (10/15)
Length of Visible Light 11h 59m
Length of Day
11h 02m
New Moon, 0% of the Moon is Illuminated
Oct 15
New Moon
Oct 21
First Quarter
Oct 29
Full
Nov 6
Last Quarter
Nov 13
New

Hourly Weather History & Observations

Time (PDT) Temp. Dew Point Humidity Pressure Visibility Wind Dir Wind Speed Gust Speed Precip Events Conditions
12:30 AM 50.0 °F 48.2 °F 94% 30.12 in 9.0 mi South 13.8 mph - N/A   Overcast
12:56 AM 50.0 °F 48.9 °F 96% 30.06 in 10.0 mi South 12.7 mph - N/A   Overcast
1:24 AM 50.0 °F 48.2 °F 94% 30.12 in 4.0 mi South 11.5 mph - N/A   Overcast
1:29 AM 50.0 °F 48.2 °F 94% 30.12 in 5.0 mi South 12.7 mph 19.6 mph N/A   Overcast
1:56 AM 50.0 °F 48.0 °F 93% 30.06 in 10.0 mi South 12.7 mph 19.6 mph N/A   Overcast
2:27 AM 50.0 °F 48.2 °F 94% 30.11 in 1.8 mi South 16.1 mph - 0.01 in Rain Light Rain
2:35 AM 48.2 °F 48.2 °F 100% 30.12 in 1.2 mi South 16.1 mph - 0.01 in Rain Light Rain
2:37 AM 48.2 °F 48.2 °F 100% 30.12 in 2.0 mi SSW 12.7 mph 23.0 mph 0.01 in Rain Light Rain
2:45 AM 50.0 °F 48.2 °F 94% 30.11 in 9.0 mi SSW 12.7 mph 19.6 mph 0.01 in   Overcast
2:56 AM 50.0 °F 48.0 °F 93% 30.05 in 10.0 mi SSW 11.5 mph 19.6 mph 0.01 in   Overcast
3:56 AM 48.9 °F 48.0 °F 97% 30.04 in 10.0 mi South 8.1 mph - N/A   Overcast
4:56 AM 50.0 °F 46.9 °F 89% 30.04 in 10.0 mi South 9.2 mph 18.4 mph N/A   Overcast
5:47 AM 48.2 °F 46.4 °F 93% 30.10 in 10.0 mi South 15.0 mph - 0.00 in Rain Light Rain
5:56 AM 48.9 °F 46.9 °F 93% 30.04 in 10.0 mi South 17.3 mph - 0.00 in Rain Light Rain
6:06 AM 48.2 °F 46.4 °F 93% 30.10 in 10.0 mi South 16.1 mph 23.0 mph N/A   Overcast
6:15 AM 48.2 °F 48.2 °F 100% 30.10 in 2.5 mi South 16.1 mph - N/A   Overcast
6:17 AM 48.2 °F 48.2 °F 100% 30.10 in 1.2 mi South 17.3 mph - N/A   Overcast
6:20 AM 48.2 °F 48.2 °F 100% 30.10 in 0.5 mi South 17.3 mph - N/A Fog Fog
6:30 AM 48.2 °F 48.2 °F 100% 30.11 in 0.2 mi South 16.1 mph 21.9 mph 0.00 in Fog , Rain Light Rain
6:56 AM 48.9 °F 48.0 °F 97% 30.06 in 0.2 mi South 17.3 mph - 0.01 in Fog , Rain Light Rain
7:11 AM 48.2 °F 48.2 °F 100% 30.11 in 0.2 mi South 16.1 mph 20.7 mph 0.00 in Fog Fog
7:56 AM 48.9 °F 48.0 °F 97% 30.06 in 0.2 mi South 15.0 mph - 0.00 in Fog Fog
8:13 AM 48.2 °F 48.2 °F 100% 30.12 in 0.8 mi South 15.0 mph - N/A   Overcast
8:23 AM 48.2 °F 48.2 °F 100% 30.12 in 1.5 mi South 16.1 mph - 0.00 in Rain Light Rain
8:29 AM 48.2 °F 48.2 °F 100% 30.12 in 0.8 mi South 16.1 mph - 0.00 in   Overcast
8:37 AM 48.2 °F 48.2 °F 100% 30.12 in 0.2 mi South 15.0 mph - 0.00 in Fog Fog
8:48 AM 48.2 °F 48.2 °F 100% 30.12 in 0.2 mi South 13.8 mph - 0.00 in Fog Fog
8:56 AM 48.9 °F 48.0 °F 97% 30.07 in 0.2 mi South 13.8 mph - 0.00 in Fog , Rain Light Rain
9:06 AM 48.2 °F 48.2 °F 100% 30.12 in 1.0 mi South 13.8 mph - 0.00 in Rain Light Rain
9:11 AM 48.2 °F 48.2 °F 100% 30.12 in 0.2 mi South 12.7 mph - 0.00 in Fog Fog
9:31 AM 50.0 °F 48.2 °F 94% 30.13 in 1.0 mi South 11.5 mph - 0.00 in   Overcast
9:33 AM 50.0 °F 48.2 °F 94% 30.13 in 2.5 mi South 11.5 mph - 0.00 in   Overcast
9:36 AM 50.0 °F 48.2 °F 94% 30.13 in 1.0 mi South 10.4 mph - 0.00 in   Overcast
9:41 AM 50.0 °F 48.2 °F 94% 30.13 in 0.2 mi South 10.4 mph - 0.00 in Fog Fog
9:53 AM 50.0 °F 48.2 °F 94% 30.13 in 0.5 mi South 10.4 mph - 0.00 in Fog Fog
9:56 AM 50.0 °F 48.9 °F 96% 30.08 in 1.2 mi South 10.4 mph - 0.00 in   Overcast
9:59 AM 50.0 °F 48.2 °F 94% 30.12 in 2.0 mi South 11.5 mph - N/A   Overcast
10:06 AM 50.0 °F 48.2 °F 94% 30.12 in 10.0 mi South 11.5 mph - N/A   Overcast
10:56 AM 51.1 °F 50.0 °F 96% 30.06 in 10.0 mi South 15.0 mph - N/A   Overcast
11:56 AM 52.0 °F 51.1 °F 97% 30.05 in 2.0 mi South 11.5 mph 19.6 mph N/A   Overcast
12:06 PM 51.8 °F 51.8 °F 100% 30.10 in 1.5 mi South 13.8 mph 19.6 mph N/A   Overcast
12:14 PM 51.8 °F 51.8 °F 100% 30.10 in 0.8 mi South 12.7 mph 19.6 mph N/A   Mist
12:25 PM 51.8 °F 51.8 °F 100% 30.09 in 0.8 mi South 13.8 mph 23.0 mph N/A   Mist
12:43 PM 51.8 °F 51.8 °F 100% 30.09 in 1.0 mi South 13.8 mph - N/A   Mist
12:49 PM 53.6 °F 51.8 °F 94% 30.08 in 2.0 mi South 16.1 mph - N/A   Overcast
12:56 PM 53.1 °F 52.0 °F 96% 30.03 in 3.0 mi South 13.8 mph 20.7 mph N/A   Overcast
1:56 PM 55.0 °F 53.1 °F 93% 30.01 in 10.0 mi South 12.7 mph 20.7 mph N/A   Overcast
2:26 PM 53.6 °F 53.6 °F 100% 30.06 in 1.8 mi South 15.0 mph - N/A   Overcast
2:29 PM 53.6 °F 53.6 °F 100% 30.06 in 1.0 mi South 15.0 mph - N/A   Mist
2:36 PM 53.6 °F 53.6 °F 100% 30.06 in 0.2 mi South 13.8 mph - 0.01 in Fog , Rain Rain
2:56 PM 54.0 °F 54.0 °F 100% 29.99 in 0.2 mi South 13.8 mph 21.9 mph 0.02 in Fog , Rain Light Rain
3:56 PM 55.0 °F 54.0 °F 96% 29.97 in 0.2 mi South 17.3 mph 26.5 mph 0.03 in Fog , Rain Rain
4:56 PM 55.0 °F 55.0 °F 100% 29.96 in 0.2 mi South 15.0 mph 21.9 mph 0.16 in Fog , Rain Heavy Rain
5:56 PM 55.0 °F 55.0 °F 100% 29.96 in 0.2 mi SSW 12.7 mph 19.6 mph 0.19 in Fog , Rain Heavy Rain
6:56 PM 55.0 °F 54.0 °F 96% 29.95 in 0.2 mi South 13.8 mph 21.9 mph 0.20 in Fog , Rain Heavy Rain
7:30 PM 55.4 °F 53.6 °F 94% 30.00 in 0.5 mi South 15.0 mph 23.0 mph 0.07 in Fog , Rain Heavy Rain
7:37 PM 55.4 °F 53.6 °F 94% 30.00 in 0.2 mi South 12.7 mph 23.0 mph 0.08 in Fog , Rain Heavy Rain
7:56 PM 55.0 °F 54.0 °F 96% 29.94 in 0.2 mi SSW 13.8 mph 23.0 mph 0.18 in Fog , Rain Heavy Rain
8:56 PM 55.0 °F 54.0 °F 96% 29.92 in 0.2 mi South 16.1 mph 24.2 mph 0.24 in Fog , Rain Rain
9:56 PM 55.0 °F 54.0 °F 96% 29.92 in 0.2 mi SSW 12.7 mph 21.9 mph 0.10 in Fog , Rain Heavy Rain
10:56 PM 55.0 °F 54.0 °F 96% 29.91 in 0.2 mi SSW 15.0 mph 24.2 mph 0.15 in Fog , Rain Rain
11:56 PM 54.0 °F 54.0 °F 100% 29.91 in 0.2 mi SSW 15.0 mph 24.2 mph 0.11 in Fog , Rain Light Rain